Wind_Speed
34 34 35 35 36 36 36 36 37 37 37 37 38 38 39 39 39 39 39 40 40 40 40 40 40 41 41 41 42 42 42 42 41 41 42 44 45 45 46 45 44 43 43
35 35 36 37 37 37 37 38 37 37 38 38 39 39 40 40 40 40 40 41 41 42 42 42 41 42 42 42 43 43 44 45 44 43 43 44 46 47 46 46 45 45 44
36 36 37 38 38 38 38 38 38 38 39 39 39 40 40 40 40 40 40 41 41 42 43 43 43 44 44 44 45 45 46 46 46 46 46 46 46 47 47 47 46 46 45
37 37 38 39 39 39 39 39 39 39 39 39 40 40 40 40 39 39 39 39 40 41 43 44 45 45 45 46 47 47 47 48 48 48 49 49 48 48 49 49 47 46 46
38 39 39 40 40 40 40 40 40 40 40 40 41 41 40 39 39 39 39 39 40 41 42 44 45 46 47 48 48 49 49 49 49 49 51 52 50 50 51 50 49 48 47
39 40 40 41 41 41 41 41 41 41 41 41 41 40 38 38 38 38 38 38 39 40 42 43 45 46 47 49 49 50 51 51 51 52 53 52 52 51 52 51 50 48 47
40 41 41 41 42 42 42 42 42 42 42 41 40 39 38 37 38 38 37 37 38 39 40 42 45 46 47 49 50 52 53 54 54 54 54 55 55 54 54 53 51 50 49
41 42 42 42 43 43 43 42 42 42 42 41 39 38 38 38 38 37 37 36 36 37 39 40 42 44 47 49 51 52 54 56 56 56 55 56 58 57 56 56 54 53 52
42 43 44 44 43 43 43 43 42 42 42 41 39 39 38 38 38 37 37 36 35 35 36 38 39 42 44 47 49 51 53 56 57 57 57 57 58 59 58 57 56 54 53
43 44 45 44 44 44 44 43 42 42 41 41 39 39 38 38 37 37 36 35 33 33 33 34 36 38 41 44 46 48 51 54 56 58 58 58 58 59 60 58 56 55 54
45 45 45 45 44 44 44 43 42 42 41 40 39 39 38 38 36 36 34 32 31 30 30 31 33 35 37 40 43 46 48 52 55 57 58 59 59 59 59 60 58 55 55
46 46 46 45 45 44 43 42 42 41 40 39 39 38 37 37 35 33 31 29 27 27 27 28 28 30 33 37 40 43 46 48 51 54 57 59 59 59 59 59 59 57 56
46 46 46 46 45 44 43 42 41 40 39 39 38 37 36 35 33 31 28 26 25 24 23 23 24 26 28 32 35 39 42 45 47 50 54 56 57 59 59 58 59 58 55
47 47 46 46 45 44 43 41 40 39 39 39 37 35 34 32 30 28 26 24 22 20 19 19 20 21 24 28 31 35 38 41 43 46 50 53 56 56 57 58 58 58 56
47 47 46 45 44 43 42 40 39 39 38 37 35 33 31 29 27 26 24 22 20 18 16 14 14 16 19 23 27 30 34 37 40 42 45 49 52 53 55 56 57 57 56
48 47 46 45 43 42 40 39 39 38 37 35 33 32 30 28 25 24 22 20 18 15 12 11 10 11 14 18 22 26 30 34 37 38 40 44 47 49 51 54 55 56 56
47 46 44 44 43 41 39 37 37 36 35 33 32 30 29 27 24 23 20 17 15 13 11 8 7 8 10 13 17 22 26 29 31 34 36 39 42 46 48 50 52 54 54
47 45 43 42 41 40 38 36 35 34 33 32 31 29 27 25 23 21 18 15 13 11 9 6 5 6 8 11 14 18 22 25 28 30 32 35 37 41 44 46 49 51 52
45 43 42 41 39 38 36 35 34 33 32 31 29 27 26 24 22 20 17 14 12 10 8 5 4 4 6 10 13 16 19 22 25 28 30 32 34 36 39 42 45 48 50
44 42 41 40 38 36 35 33 32 31 30 30 27 25 24 23 21 20 17 14 12 10 7 5 3 4 6 8 11 14 17 20 22 24 27 30 32 34 36 39 42 45 47
42 40 39 38 36 34 33 32 31 29 29 28 26 24 23 22 20 18 16 14 12 10 7 5 2 3 5 7 9 12 15 18 20 21 24 27 29 31 34 38 41 43 45
40 38 37 35 34 33 31 30 29 28 27 26 24 23 22 20 19 17 16 14 12 10 8 5 3 3 4 6 9 11 14 16 18 20 22 25 27 29 32 35 39 41 42
38 36 35 33 32 31 30 28 27 26 25 23 22 21 21 19 17 16 15 14 12 10 8 5 3 3 4 6 8 10 13 15 17 20 22 23 24 27 30 32 35 38 39
36 35 33 31 30 29 28 26 25 24 23 22 20 20 20 19 17 16 14 13 11 9 7 5 3 2 3 5 7 9 12 14 16 18 20 22 23 25 28 30 32 34 36
34 33 31 29 28 27 25 24 23 22 21 20 19 18 18 18 17 15 13 12 10 8 7 6 4 2 2 3 5 8 10 12 15 17 18 20 22 24 26 28 31 32 33
32 31 29 27 26 24 23 22 21 21 20 19 18 17 16 16 15 14 12 11 9 8 6 5 4 2 1 2 5 7 8 10 13 15 17 19 21 24 25 27 29 31 32
Wind_Direction
325 324 323 322 320 318 316 314 312 309 305 302 299 296 293 289 285 281 277 273 269 265 261 257 254 250 247 244 240 237 236 235 231 228 228 226 222 222 221 221 220 221 219
327 326 325 324 322 320 318 316 314 311 308 305 302 299 295 291 286 282 278 273 268 264 261 257 253 250 246 243 240 237 235 233 231 227 227 227 225 223 222 221 220 221 220
329 328 326 325 323 321 320 318 315 313 310 307 305 302 297 293 289 284 279 274 269 264 260 256 253 250 246 243 240 237 235 232 230 228 226 225 224 223 221 220 220 221 221
330 329 328 327 325 323 321 319 317 315 313 310 308 305 301 296 292 287 282 277 271 266 261 257 253 249 246 243 240 237 235 233 230 228 225 223 222 222 221 220 220 221 221
332 331 330 328 326 324 322 320 318 316 314 313 310 307 304 299 294 290 284 278 273 268 262 257 253 249 245 243 239 236 234 232 231 229 225 222 220 221 222 220 220 221 221
333 332 330 328 326 325 323 321 319 317 316 314 312 309 305 301 297 293 287 280 274 269 263 258 253 250 245 242 238 236 233 232 230 228 226 223 221 220 220 220 221 220 221
333 333 331 329 327 326 324 321 320 318 317 316 314 311 307 303 300 296 291 284 278 272 265 259 254 250 246 242 239 235 233 231 229 228 226 224 222 221 220 220 220 220 220
334 333 331 330 328 327 325 323 321 320 319 317 314 311 308 305 302 299 294 288 283 275 267 260 255 250 247 243 239 235 233 231 229 227 226 224 223 222 221 221 222 223 222
334 334 332 331 329 327 326 324 322 321 320 318 316 313 310 307 305 301 297 291 285 277 269 262 257 252 248 244 239 235 232 230 228 227 225 223 222 222 221 221 221 221 221
334 334 332 331 330 329 327 325 323 323 321 320 318 316 313 311 307 304 299 294 287 279 272 265 259 253 247 242 237 234 231 229 228 226 225 223 221 221 221 221 221 221 222
333 333 332 330 330 330 329 327 325 324 323 322 320 319 317 314 311 307 303 297 289 282 275 268 261 253 246 241 236 232 230 228 226 225 224 223 222 220 221 222 221 221 221
333 332 331 330 330 331 330 328 327 326 326 325 323 322 320 318 315 312 307 301 294 286 278 270 262 254 246 239 234 231 228 226 225 224 224 223 222 222 221 222 221 220 219
333 333 332 332 332 331 331 330 329 328 328 328 326 325 323 321 319 317 312 306 299 292 282 273 263 254 245 237 233 230 227 225 223 223 223 222 222 221 221 221 221 219 218
333 333 333 332 332 332 332 331 330 330 330 330 329 329 328 326 323 321 320 315 308 300 289 277 266 254 243 234 229 227 225 222 221 221 221 221 220 220 220 220 220 219 218
332 333 333 333 333 332 332 332 332 332 333 333 332 333 333 331 328 326 325 323 318 310 297 284 272 253 240 231 225 222 221 219 218 218 219 219 219 220 219 218 218 219 218
332 332 332 333 333 333 333 332 333 335 336 336 336 336 336 335 333 331 330 329 326 321 309 291 276 253 235 227 222 219 218 217 216 216 217 217 217 218 217 217 217 217 217
331 331 331 332 333 333 333 333 334 336 338 338 338 339 340 339 338 338 336 335 334 329 322 304 275 243 228 219 215 214 213 213 214 214 214 214 215 216 215 215 214 214 215
331 331 331 332 333 333 333 333 335 338 339 339 339 341 343 344 343 342 341 340 341 338 331 319 287 242 224 217 210 210 209 209 211 212 214 213 213 213 213 212 212 212 213
330 331 331 332 332 333 333 334 335 338 340 341 342 343 345 347 347 347 346 344 342 340 333 316 284 245 224 213 208 206 206 206 209 212 214 213 211 211 211 211 211 211 212
328 329 330 331 331 332 333 334 336 337 339 342 343 344 346 349 350 350 352 350 346 345 340 327 288 242 223 212 208 206 205 206 207 209 211 211 210 210 210 209 210 211 211
326 327 328 330 330 331 332 333 336 337 339 341 343 344 345 348 350 351 354 353 350 347 343 338 310 232 221 215 208 204 203 204 205 205 205 207 207 208 209 209 208 208 209
323 325 326 328 329 330 331 333 335 337 339 341 343 346 348 349 351 352 352 353 353 353 350 340 315 255 233 222 212 207 205 203 204 205 205 205 205 206 206 206 206 206 208
320 322 324 326 327 329 330 332 334 336 338 341 344 347 349 349 350 351 350 352 354 353 354 351 322 273 242 225 213 208 206 205 205 204 204 205 205 205 204 204 205 205 207
318 319 321 322 324 327 329 331 333 336 337 339 342 345 348 350 350 350 351 353 353 353 354 351 333 293 247 225 213 206 204 205 205 204 203 204 204 204 204 204 205 206 207
314 316 317 318 321 324 327 329 332 335 336 338 340 342 346 350 353 353 358 1 3 3 2 1 354 325 281 228 213 208 207 205 204 204 203 205 206 205 206 206 206 206 207
310 312 313 315 318 320 323 327 331 335 337 337 340 342 345 349 354 356 359 4 10 15 14 15 19 14 344 207 204 207 206 204 204 204 205 206 207 208 209 209 208 207 207
Height
5780 5775 5769 5764 5758 5753 5748 5743 5739 5734 5730 5726 5722 5719 5716 5714 5712 5710 5709 5708 5709 5710 5711 5713 5715 5718 5722 5725 5730 5734 5739 5744 5750 5754 5759 5764 5770 5776 5782 5789 5795 5801 5807
5773 5767 5761 5755 5750 5744 5739 5734 5729 5724 5719 5715 5711 5707 5704 5701 5698 5697 5695 5695 5695 5696 5697 5699 5702 5705 5709 5712 5717 5722 5727 5732 5738 5744 5749 5754 5760 5766 5772 5779 5786 5792 5799
5765 5760 5754 5748 5741 5736 5730 5724 5719 5714 5709 5704 5699 5695 5691 5688 5685 5682 5681 5680 5680 5681 5682 5684 5687 5691 5695 5699 5704 5709 5714 5719 5726 5732 5738 5743 5749 5755 5762 5769 5776 5783 5789
5759 5752 5746 5740 5733 5727 5721 5715 5709 5704 5698 5693 5688 5683 5678 5674 5671 5668 5666 5666 5665 5666 5667 5669 5672 5675 5680 5684 5690 5695 5701 5706 5713 5719 5726 5732 5738 5745 5752 5758 5766 5773 5780
5752 5745 5739 5732 5725 5719 5713 5706 5700 5694 5688 5682 5676 5671 5665 5661 5657 5654 5652 5651 5650 5651 5651 5653 5656 5659 5664 5669 5675 5680 5687 5693 5700 5706 5713 5720 5727 5734 5741 5748 5756 5763 5770
5745 5738 5731 5724 5717 5711 5704 5697 5691 5684 5678 5671 5665 5659 5653 5649 5645 5641 5638 5636 5635 5635 5636 5637 5640 5643 5648 5653 5659 5665 5672 5679 5686 5693 5701 5708 5715 5723 5730 5738 5745 5753 5760
5738 5731 5724 5717 5709 5702 5695 5688 5681 5674 5667 5660 5654 5648 5642 5637 5632 5628 5624 5622 5621 5620 5620 5621 5623 5627 5631 5636 5642 5649 5656 5663 5671 5679 5687 5695 5703 5712 5719 5727 5734 5742 5750
5731 5724 5716 5709 5701 5693 5686 5679 5671 5664 5657 5650 5643 5637 5631 5626 5620 5616 5611 5608 5606 5604 5604 5605 5607 5610 5614 5619 5625 5632 5639 5647 5656 5665 5674 5682 5689 5697 5707 5715 5722 5730 5738
5724 5717 5709 5701 5693 5685 5677 5670 5662 5654 5647 5640 5633 5626 5620 5614 5608 5603 5599 5595 5592 5590 5589 5590 5591 5594 5598 5602 5608 5616 5623 5631 5639 5648 5657 5666 5675 5685 5694 5702 5711 5719 5727
5717 5709 5701 5693 5685 5677 5669 5661 5653 5645 5637 5630 5623 5616 5609 5603 5597 5591 5586 5582 5579 5577 5576 5576 5577 5579 5582 5586 5592 5599 5607 5615 5623 5632 5642 5652 5661 5671 5680 5690 5699 5708 5716
5710 5702 5693 5685 5677 5669 5661 5652 5644 5636 5628 5621 5614 5606 5599 5592 5585 5579 5574 5570 5567 5564 5563 5562 5563 5564 5567 5571 5577 5584 5592 5599 5608 5617 5627 5637 5647 5657 5667 5676 5686 5695 5705
5703 5695 5686 5678 5669 5661 5653 5644 5636 5628 5620 5612 5604 5596 5589 5582 5575 5569 5563 5559 5555 5553 5551 5550 5550 5552 5554 5559 5564 5571 5577 5585 5594 5603 5613 5623 5634 5644 5654 5663 5673 5682 5692
5696 5687 5679 5670 5661 5653 5645 5637 5628 5620 5612 5604 5596 5588 5580 5573 5566 5560 5555 5550 5546 5543 5541 5540 5540 5541 5544 5548 5553 5559 5565 5573 5582 5591 5600 5610 5620 5630 5640 5650 5660 5670 5679
5689 5680 5672 5663 5654 5646 5638 5629 5621 5613 5605 5597 5589 5581 5573 5566 5560 5554 5548 5543 5539 5535 5533 5532 5532 5532 5535 5538 5543 5549 5556 5563 5572 5580 5589 5598 5607 5617 5628 5638 5649 5659 5668
5682 5673 5665 5656 5648 5639 5631 5623 5615 5607 5599 5591 5583 5575 5568 5561 5555 5549 5543 5538 5534 5530 5528 5527 5526 5526 5528 5531 5536 5542 5548 5555 5563 5571 5579 5587 5597 5606 5616 5627 5637 5647 5658
5675 5666 5658 5650 5642 5634 5625 5617 5609 5602 5594 5586 5578 5571 5564 5557 5551 5545 5540 5535 5531 5527 5525 5523 5523 5523 5524 5527 5531 5536 5542 5549 5556 5563 5571 5579 5587 5597 5606 5616 5626 5637 5647
5668 5660 5651 5643 5636 5628 5620 5613 5605 5597 5589 5582 5575 5568 5561 5554 5548 5543 5537 5533 5529 5526 5523 5521 5521 5522 5523 5525 5528 5532 5537 5543 5550 5557 5564 5571 5579 5588 5597 5607 5617 5627 5637
5661 5653 5645 5637 5630 5622 5615 5608 5601 5593 5586 5578 5571 5564 5558 5552 5546 5541 5536 5532 5528 5525 5523 5521 5521 5521 5522 5524 5527 5530 5535 5540 5546 5552 5559 5565 5573 5581 5590 5599 5608 5618 5628
5654 5646 5639 5631 5624 5617 5610 5603 5596 5589 5583 5576 5569 5562 5556 5550 5545 5540 5535 5531 5528 5525 5523 5522 5521 5521 5522 5523 5526 5529 5533 5537 5543 5548 5554 5560 5567 5575 5583 5591 5600 5609 5619
5647 5640 5633 5626 5619 5612 5605 5599 5593 5586 5580 5573 5567 5561 5555 5549 5544 5539 5535 5531 5528 5525 5523 5522 5521 5521 5522 5523 5525 5528 5532 5536 5540 5545 5550 5556 5562 5569 5576 5584 5593 5602 5611
5640 5633 5627 5620 5614 5607 5601 5595 5589 5583 5577 5571 5565 5559 5554 5548 5543 5539 5535 5531 5528 5526 5524 5522 5522 5522 5522 5523 5525 5527 5530 5533 5537 5542 5547 5552 5558 5564 5571 5578 5587 5595 5604
5633 5627 5621 5615 5609 5603 5597 5592 5586 5580 5574 5569 5563 5558 5553 5548 5543 5539 5535 5532 5529 5526 5524 5523 5522 5522 5522 5523 5524 5526 5529 5532 5536 5540 5544 5549 5555 5560 5566 5573 5581 5589 5598
5626 5621 5615 5610 5604 5599 5593 5588 5583 5578 5572 5567 5562 5557 5552 5547 5543 5539 5535 5532 5529 5526 5524 5523 5522 5522 5522 5523 5524 5526 5528 5531 5534 5538 5542 5546 5551 5557 5563 5569 5576 5584 5592
5619 5614 5609 5605 5600 5595 5590 5585 5580 5575 5570 5565 5560 5556 5551 5547 5542 5538 5535 5531 5529 5526 5525 5523 5522 5521 5521 5522 5523 5525 5527 5529 5532 5536 5539 5544 5548 5554 5559 5566 5573 5579 5586
5612 5608 5603 5599 5595 5591 5586 5581 5577 5572 5568 5563 5559 5555 5551 5546 5542 5538 5535 5532 5529 5527 5525 5524 5522 5521 5521 5521 5522 5524 5526 5528 5530 5534 5537 5542 5546 5551 5556 5562 5568 5575 5582
5605 5601 5597 5594 5590 5586 5582 5578 5574 5570 5566 5562 5558 5554 5550 5546 5542 5539 5536 5533 5530 5528 5526 5524 5523 5522 5521 5521 5522 5523 5524 5526 5529 5532 5535 5539 5543 5548 5552 5558 5563 5570 5577